Location: Borkenes
(68.7830°N, 16.1830°E)
Time: 17:33:39
(UTC+01:00)

A-11 Canister half - All Passes

Search period start: 10 December 2019 00:00
Search period end: 20 December 2019 00:00
Orbit: 1526 x 1683 km, 47.3° (Epoch: 10 December)

Date Brightness Start Highest point End Pass type
(mag) Time Alt. Az. Time Alt. Az. Time Alt. Az.
10 Dec - 06:13:47 10° S 06:18:35 15° SSE 06:23:21 10° ESE visible
10 Dec - 08:13:44 10° SW 08:20:27 20° S 08:27:07 10° SE visible
10 Dec - 10:16:11 10° WSW 10:22:32 19° SSW 10:28:49 10° SSE daylight
10 Dec - 12:21:34 10° WSW 12:24:09 11° SW 12:26:43 10° SSW daylight
11 Dec - 05:52:28 10° S 05:57:05 14° SE 06:01:40 10° ESE visible
11 Dec - 07:52:14 10° SSW 07:58:56 20° S 08:05:34 10° SE visible
11 Dec - 09:54:35 10° SW 10:01:01 19° SSW 10:07:22 10° SSE daylight
11 Dec - 11:59:40 10° WSW 12:02:40 12° SW 12:05:39 10° SSW daylight
12 Dec - 05:31:09 10° S 05:35:34 14° SE 05:39:59 10° ESE visible
12 Dec - 07:30:43 10° SSW 07:37:24 20° S 07:44:01 10° SE visible
12 Dec - 09:33:00 10° SW 09:39:29 20° SSW 09:45:54 10° SSE daylight
12 Dec - 11:37:48 10° WSW 11:41:11 12° SW 11:44:32 10° SSW daylight
13 Dec - 05:09:52 10° SSE 05:14:04 13° SE 05:18:16 10° ESE visible
13 Dec - 07:09:14 10° SSW 07:15:52 20° SSE 07:22:29 10° SE visible
13 Dec - 09:11:25 10° SW 09:17:58 20° SSW 09:24:27 10° SSE visible
13 Dec - 11:15:59 10° WSW 11:19:41 13° SW 11:23:22 10° SSW daylight
14 Dec - 04:48:36 10° SSE 04:52:34 13° SE 04:56:32 10° ESE visible
14 Dec - 06:47:44 10° SSW 06:54:20 20° SSE 07:00:54 10° SE visible
14 Dec - 08:49:50 10° SW 08:56:26 20° SSW 09:02:59 10° SSE visible
14 Dec - 10:54:13 10° WSW 10:58:11 13° SW 11:02:09 10° SSW daylight
15 Dec - 04:27:22 10° SSE 04:31:04 13° SE 04:34:47 10° ESE visible
15 Dec - 06:26:15 10° SSW 06:32:49 20° SSE 06:39:21 10° SE visible
15 Dec - 08:28:15 10° SW 08:34:54 20° SSW 08:41:31 10° SSE visible
15 Dec - 10:32:27 10° WSW 10:36:41 13° SW 10:40:54 10° S daylight
16 Dec - 04:06:10 10° SSE 04:09:34 12° SE 04:12:59 10° ESE visible
16 Dec - 06:04:46 10° SSW 06:11:16 20° SSE 06:17:46 10° SE visible
16 Dec - 08:06:41 10° SW 08:13:23 20° S 08:20:02 10° SSE visible
16 Dec - 10:10:43 10° WSW 10:15:11 14° SW 10:19:38 10° S daylight
17 Dec - 03:45:00 10° SSE 03:48:05 12° SE 03:51:09 10° ESE visible
17 Dec - 05:43:18 10° SSW 05:49:45 19° SSE 05:56:12 10° ESE visible
17 Dec - 07:45:06 10° SW 07:51:50 21° S 07:58:32 10° SSE visible
17 Dec - 09:49:01 10° WSW 09:53:41 14° SW 09:58:20 10° S daylight
18 Dec - 03:23:55 10° SSE 03:26:35 11° SE 03:29:16 10° ESE visible
18 Dec - 05:21:50 10° SSW 05:28:13 19° SSE 05:34:37 10° ESE visible
18 Dec - 07:23:33 10° SW 07:30:19 21° S 07:37:03 10° SE visible
18 Dec - 09:27:19 10° WSW 09:32:11 15° SSW 09:37:02 10° S visible
19 Dec - 03:02:56 10° SSE 03:05:06 11° SE 03:07:16 10° ESE visible
19 Dec - 05:00:22 10° SSW 05:06:41 19° SSE 05:13:01 10° ESE visible
19 Dec - 07:01:59 10° SW 07:08:47 21° S 07:15:33 10° SE visible
19 Dec - 09:05:38 10° WSW 09:10:40 15° SSW 09:15:42 10° S visible
